Location: Vaughan
(31.9146°N, 97.1736°W)
Time: 23:15:57
(UTC+00:00)

SL-24 R/B - RUBIN 2 - Visible Passes

Search period start: 12 March 2026 00:00
Search period end: 22 March 2026 00:00
Orbit: 603 x 984 km, 64.6° (Epoch: 12 March)

Date Brightness Start Highest point End Pass type
(mag) Time Alt. Az. Time Alt. Az. Time Alt. Az.
12 Mar 3.8 02:00:03 10° SSW 02:05:18 85° WNW 02:09:49 11° NNE visible
12 Mar 5.4 10:52:44 10° N 10:56:44 32° ENE 11:00:58 10° ESE visible
13 Mar 3.8 01:30:01 10° SSW 01:35:15 68° ESE 01:39:58 10° NE visible
13 Mar 6.7 03:17:09 10° WNW 03:19:13 12° NW 03:21:13 10° NNW visible
13 Mar 5.9 10:23:01 10° N 10:26:36 23° NE 10:30:20 10° ESE visible
13 Mar 4.6 12:06:18 10° NW 12:10:11 29° WSW 12:14:20 10° S visible
14 Mar 4.1 01:00:09 10° S 01:05:12 47° ESE 01:09:47 10° NE visible
14 Mar 6.5 02:45:45 10° W 02:49:00 17° NW 02:52:04 10° NNW visible
14 Mar 6.3 09:54:48 14° NNE 09:56:25 17° NE 09:59:26 10° E visible
14 Mar 4.1 11:35:56 10° NW 11:40:10 41° WSW 11:44:43 10° S visible
15 Mar 6.1 02:14:49 10° WSW 02:18:49 23° NW 02:22:33 10° N visible
15 Mar 6.7 09:27:17 11° ENE 09:27:17 11° ENE 09:28:03 10° ENE visible
15 Mar 3.6 11:08:11 32° NW 11:10:08 60° WSW 11:14:55 10° SSE visible
16 Mar 5.7 01:44:09 10° WSW 01:48:40 31° WNW 01:52:52 10° N visible
16 Mar 3.8 10:40:52 62° SSE 10:40:52 62° SSE 10:44:56 10° SSE visible
17 Mar 5.1 01:13:40 10° SW 01:18:34 43° WNW 01:23:03 10° NNE visible
17 Mar 5.9 10:13:37 17° SE 10:13:37 17° SE 10:14:48 10° SE visible
20 Mar 6.7 01:30:12 10° WNW 01:32:18 13° NW 01:34:20 10° NNW visible
21 Mar 6.5 00:58:50 10° W 01:02:04 17° NW 01:05:10 10° NNW visible
